#timestamp,LO_Frequency,Hit 
1497852015.7,286046990.9,N
1497852035.5,286046991.2,N
1497852055.4,286046990.9,N
1497852075.2,286046990.4,N
1497852095.0,286046991.4,N
1497852095.9,286046991.4,N
1497852115.8,286046990.2,N
1497852135.6,286046990.7,N
1497852155.4,286046992.6,N
1497852175.3,286046990.9,N
1497852195.1,286046988.9,N
1497852196.0,286046988.9,N
1497852215.8,286046989.1,N
1497852235.7,286046991.5,N
1497852255.5,286046991.1,N
1497852275.3,286046988.5,N
1497852295.2,286046991.4,N
1497852315.9,286046992.8,N
1497852335.7,286046991.4,N
1497852355.5,286046991.2,N
1497852375.4,286046990.7,N
1497852395.2,286046988.9,N
1497852415.0,286046991.2,N
1497852415.9,286046991.2,N
1497852435.8,286046988.7,N
1497852455.6,286046989.8,N
1497852475.4,286046989.7,N
1497852495.3,286046987.2,N
1497852515.1,286046988.6,N
1497852516.0,286046988.6,N
1497852535.8,286046988.7,N
1497852555.7,286046989.1,N
1497852575.9,286046988.3,N
1497852595.7,286046985.8,N
1497852615.5,286046985.5,N
1497852635.3,286046986.7,N
1497852655.2,286046983.7,N
1497852675.0,286046984.2,N
1497852675.9,286046984.2,N
1497852695.7,286046983.7,N
1497852715.6,286046986.4,N
1497852735.4,286046985.5,N
1497852755.2,286046988.3,N
1497852775.1,286046988.3,N
1497852776.0,286046988.3,N
1497852795.8,286046987.1,N
1497852815.6,286046988.0,N
1497852835.5,286046986.8,N
1497852855.3,286046986.3,N
1497852875.1,286046986.2,N
1497852895.9,286046986.6,N
1497852915.7,286046986.6,N
1497852935.5,286046987.8,N
1497852955.3,286046987.6,N
1497852975.2,286046985.4,N
1497852995.0,286046985.5,N
1497852995.9,286046985.5,N
1497853015.7,286046986.4,N
1497853035.6,286046986.1,N
1497853055.4,286046985.6,N
1497853075.2,286046985.5,N
1497853095.1,286046986.3,N
1497853096.0,286046986.3,N
1497853115.8,286046987.9,N
1497853135.6,286046988.3,N
1497853155.5,286046987.2,N
1497853175.3,286046987.4,N
1497853195.1,286046986.1,N
1497853215.9,286046985.8,N
1497853235.7,286046988.4,N
1497853255.7,286046989.7,N
1497853275.5,286046989.4,N
1497853295.4,286046987.6,N
1497853315.2,286046987.4,N
1497853335.0,286046988.5,N
1497853335.9,286046988.5,N
1497853355.7,286046985.6,N
1497853375.6,286046988.2,N
1497853395.4,286046986.1,N
1497853415.2,286046987.6,N
1497853435.1,286046985.4,Y
1497853436.0,286046985.4,Y
1497853455.8,286047022.0,Y
1497853475.7,286047037.4,Y
1497853495.5,286047052.5,Y
1497853515.3,286047071.3,Y
1497853535.2,286047086.4,Y
1497853555.0,286047101.8,Y
1497853555.9,286047101.8,Y
1497853575.8,286047132.2,Y
1497853595.6,286047146.2,Y
1497853615.5,286047162.0,Y
1497853635.3,286047176.4,Y
1497853655.1,286047190.0,Y
1497853675.9,286047202.8,Y
1497853695.7,286047211.0,Y
1497853715.6,286047228.4,Y
1497853735.4,286047239.6,Y
1497853755.2,286047250.7,Y
1497853775.1,286047257.4,Y
1497853776.0,286047257.4,Y
1497853795.8,286047277.8,Y
1497853815.7,286047285.7,Y
1497853835.5,286047291.1,Y
1497853855.3,286047298.8,Y
1497853875.2,286047304.6,Y
1497853895.0,286047308.9,Y
1497853895.9,286047308.9,Y
1497853915.8,286047317.0,Y
1497853935.6,286047321.2,Y
1497853955.5,286047320.3,Y
1497853975.3,286047319.8,Y
1497853995.1,286047322.4,Y
1497854015.9,286047322.4,Y
1497854035.7,286047319.0,Y
1497854055.6,286047317.1,Y
1497854075.4,286047314.1,Y
1497854095.2,286047310.3,Y
1497854115.1,286047306.6,Y
1497854116.0,286047306.6,Y
1497854135.8,286047293.2,Y
1497854155.7,286047287.4,Y
1497854175.5,286047278.9,Y
1497854195.3,286047268.6,Y
1497854215.2,286047259.4,Y
1497854235.0,286047250.6,Y
1497854235.9,286047250.6,N
1497854255.8,286047238.1,N
1497854275.6,286047238.4,N
1497854295.4,286047240.4,N
1497854315.3,286047240.7,N
1497854335.1,286047241.2,N
1497854336.0,286047241.2,N
1497854355.8,286047236.8,N
1497854375.6,286047239.4,N
1497854395.5,286047241.1,N
1497854415.3,286047238.7,N
1497854435.1,286047242.4,N
1497854455.9,286047240.9,N
1497854475.7,286047238.6,N
1497854495.5,286047238.2,N
1497854515.4,286047239.1,N
1497854535.2,286047239.2,N
1497854555.0,286047239.3,N
1497854555.9,286047239.3,N
1497854575.8,286047236.7,N
1497854595.6,286047238.7,N
1497854615.4,286047236.6,N
1497854635.2,286047237.4,N
1497854655.1,286047237.6,N
1497854656.0,286047237.6,N
1497854675.8,286047237.2,N
1497854695.6,286047239.4,N
1497854715.5,286047236.5,N
1497854735.3,286047237.5,N
1497854755.1,286047234.9,N
1497854775.9,286047236.8,N
1497854795.7,286047237.5,N
1497854815.5,286047237.8,N
1497854835.3,286047234.9,N
1497854855.2,286047235.2,N
1497854875.0,286047236.4,N
1497854875.9,286047236.4,N
1497854895.7,286047233.4,N
1497854915.6,286047234.4,N
1497854935.4,286047233.7,N
1497854955.2,286047231.7,N
1497854975.1,286047233.7,N
1497854976.0,286047233.7,N
1497854995.8,286047235.8,N
1497855015.6,286047236.2,N
1497855035.5,286047235.5,N
1497855055.3,286047234.8,N
1497855075.1,286047233.6,N
1497855095.9,286047234.1,N
1497855115.7,286047234.7,N
1497855135.5,286047234.7,N
1497855155.3,286047232.2,N
1497855175.2,286047233.2,N
1497855195.0,286047230.8,N
1497855195.9,286047230.8,N
1497855215.7,286047232.8,N
1497855235.6,286047230.7,N
1497855255.4,286047230.7,N
1497855275.2,286047228.9,N
1497855295.1,286047228.6,N
1497855296.0,286047228.6,N
1497855315.8,286047229.1,N
1497855335.6,286047230.3,N
1497855355.5,286047228.9,N
1497855375.3,286047227.1,N
1497855395.1,286047228.8,N
1497855415.8,286047227.5,N
1497855435.7,286047228.4,N
1497855455.5,286047228.1,N
1497855475.3,286047230.0,N
1497855495.2,286047226.9,N
1497855515.9,286047231.5,N
1497855535.7,286047230.8,N
1497855555.6,286047233.1,N
1497855575.4,286047231.4,N
1497855595.2,286047229.8,N
